User: anonymous   Login
Location: Hamilton
(37.7830°S, 175.2830°E)
Time: 09:30:56
(UTC+13:00)
Language:

Atlas Centaur 2 - Orbit

View from above orbital plane
View from above orbital plane
View from above satellite
View from above satellite

Ground track
Ground track

The orbit data is extracted from the following two-line orbital elements,

1   694U 63047A   19079.79585913  .00000530  00000-0  54051-4 0  9999
2   694  30.3573 233.8767 0586440 199.6284 158.0829 14.02446668772846
Epoch (UTC): 20 March 2019 19:06:02
Eccentricity: 0.0586440
inclination: 30.3573°
perigee height: 459 km
apogee height: 1311 km
right ascension of ascending node: 233.8767°
argument of perigee: 199.6284°
revolutions per day: 14.02446668
mean anomaly at epoch: 158.0829°
orbit number at epoch: 77284

The dashed part of the orbit path shows where the satellite is in the earth's shadow,  

DLR